Powrót do katalogu

UNICORN-2S

AktywnyMilitariaSSO
NORAD 68475·PAYLOAD·🇩🇪 Germany

Wystrzelony Mar 30, 2026 z Vandenberg Space Force Base

Loading…

Następne Przeloty (najbliższe 24 godziny)

TLE

ŚwieżeSource: Space-Track

Epoka: Sep 14, 2026, 08:31 UTC

1 68475U 26067BM  26257.35497484  .00007106  00000-0  68260-3 0  9996
2 68475  97.7584 214.1737 0005651 105.8434 254.3409 14.93343134 24502

Śledź UNICORN-2S w czasie rzeczywistym z AllMySat

Download on the App Store